Meteo pe oră la Dublin

Astăzi, 31 Octombrie, Sâmbătă

Timp Temperatura Precipitaţii Vânt Presiune Umiditate
00:00 +10°C° 0 mm 7 m/s 738 mmHg 92%
01:00 +11°C° 0.5 mm 8 m/s 736 mmHg 92%
02:00 +12°C° 0.5 mm 10 m/s 735 mmHg 91%
03:00 +14°C° 0.5 mm 11 m/s 733 mmHg 91%
04:00 +13°C° 0.7 mm 12 m/s 732 mmHg 91%
05:00 +13°C° 0.7 mm 13 m/s 730 mmHg 91%
06:00 +13°C° 0 mm 12 m/s 729 mmHg 89%
07:00 +13°C° 1.5 mm 12 m/s 728 mmHg 88%
08:00 +12°C° 1.5 mm 12 m/s 727 mmHg 87%
09:00 +12°C° 1.5 mm 12 m/s 727 mmHg 86%
10:00 +10°C° 0.1 mm 12 m/s 728 mmHg 82%
11:00 +9°C° 0.1 mm 12 m/s 730 mmHg 79%
12:00 +8°C° 0 mm 10 m/s 732 mmHg 75%
13:00 +8°C° 0 mm 10 m/s 733 mmHg 73%
14:00 +8°C° 0 mm 10 m/s 734 mmHg 71%
15:00 +7°C° 0 mm 10 m/s 734 mmHg 69%
16:00 +6°C° 0 mm 9 m/s 735 mmHg 72%
17:00 +5°C° 0 mm 8 m/s 735 mmHg 74%
18:00 +5°C° 0 mm 7 m/s 735 mmHg 76%
19:00 +5°C° 0 mm 7 m/s 735 mmHg 75%
20:00 +5°C° 0 mm 7 m/s 735 mmHg 74%
21:00 +5°C° 0 mm 7 m/s 736 mmHg 72%
22:00 +5°C° 0.2 mm 8 m/s 734 mmHg 78%
23:00 +5°C° 0.2 mm 9 m/s 733 mmHg 83%

Mâine, 1 Noiembrie, Duminică

Timp Temperatura Precipitaţii Vânt Presiune Umiditate
00:00 +5°C° 0.2 mm 10 m/s 731 mmHg 89%
01:00 +6°C° 0.6 mm 10 m/s 730 mmHg 89%
02:00 +8°C° 0.6 mm 11 m/s 728 mmHg 90%
03:00 +9°C° 0.6 mm 12 m/s 726 mmHg 91%
04:00 +8°C° 0.2 mm 11 m/s 727 mmHg 88%
05:00 +7°C° 0.2 mm 10 m/s 727 mmHg 85%
06:00 +6°C° 0.2 mm 9 m/s 728 mmHg 82%
07:00 +6°C° 0 mm 9 m/s 728 mmHg 81%
08:00 +6°C° 0 mm 9 m/s 729 mmHg 81%
09:00 +5°C° 0 mm 9 m/s 730 mmHg 81%
10:00 +6°C° 0 mm 9 m/s 730 mmHg 79%
11:00 +7°C° 0 mm 9 m/s 730 mmHg 78%
12:00 +8°C° 0 mm 10 m/s 730 mmHg 76%
13:00 +8°C° 0.7 mm 9 m/s 729 mmHg 82%
14:00 +9°C° 0.7 mm 8 m/s 729 mmHg 87%
15:00 +7°C° 0.7 mm 8 m/s 728 mmHg 93%
16:00 +9°C° 1.6 mm 7 m/s 727 mmHg 94%
17:00 +10°C° 1.6 mm 7 m/s 726 mmHg 95%
18:00 +11°C° 1.6 mm 6 m/s 725 mmHg 97%
19:00 +11°C° 1 mm 6 m/s 725 mmHg 96%
20:00 +13°C° 1 mm 6 m/s 725 mmHg 96%
21:00 +13°C° 1 mm 5 m/s 725 mmHg 95%
22:00 +14°C° 0.4 mm 7 m/s 724 mmHg 93%
23:00 +13°C° 0.4 mm 9 m/s 724 mmHg 91%

Poimâine, 2 Noiembrie, Luni

Timp Temperatura Precipitaţii Vânt Presiune Umiditate
00:00 +14°C° 0.4 mm 11 m/s 724 mmHg 89%
01:00 +14°C° 0.6 mm 10 m/s 723 mmHg 89%
02:00 +13°C° 0.6 mm 9 m/s 722 mmHg 89%
03:00 +13°C° 0.6 mm 9 m/s 722 mmHg 89%
04:00 +12°C° 0.3 mm 9 m/s 721 mmHg 89%
05:00 +12°C° 0.3 mm 9 m/s 721 mmHg 89%
06:00 +11°C° 0.3 mm 9 m/s 720 mmHg 88%
07:00 +8°C° 0.7 mm 10 m/s 722 mmHg 88%
08:00 +6°C° 0.7 mm 10 m/s 723 mmHg 88%
09:00 +3°C° 0.7 mm 11 m/s 725 mmHg 89%
10:00 +4°C° 0.2 mm 11 m/s 726 mmHg 85%
11:00 +4°C° 0.2 mm 11 m/s 728 mmHg 82%
12:00 +6°C° 0.2 mm 11 m/s 729 mmHg 78%
13:00 +4°C° 0.1 mm 11 m/s 729 mmHg 78%
14:00 +4°C° 0.1 mm 11 m/s 729 mmHg 79%
15:00 +3°C° 0.1 mm 11 m/s 730 mmHg 79%
16:00 +3°C° 0.1 mm 10 m/s 730 mmHg 82%
17:00 +5°C° 0.1 mm 9 m/s 731 mmHg 86%
18:00 +5°C° 0.1 mm 8 m/s 732 mmHg 89%
19:00 +4°C° 0 mm 7 m/s 733 mmHg 90%
20:00 +4°C° 0 mm 7 m/s 734 mmHg 90%
21:00 +3°C° 0 mm 6 m/s 736 mmHg 91%
22:00 +3°C° 0 mm 6 m/s 737 mmHg 91%
23:00 +3°C° 0 mm 6 m/s 738 mmHg 92%

3 Noiembrie, Marţi

Timp Temperatura Precipitaţii Vânt Presiune Umiditate
00:00 +3°C° 0 mm 6 m/s 739 mmHg 92%
01:00 +3°C° 0.1 mm 6 m/s 740 mmHg 91%
02:00 +3°C° 0.1 mm 7 m/s 741 mmHg 90%
03:00 +3°C° 0.1 mm 7 m/s 741 mmHg 89%
04:00 +3°C° 0 mm 6 m/s 742 mmHg 90%
05:00 +3°C° 0 mm 6 m/s 743 mmHg 92%
06:00 +3°C° 0 mm 5 m/s 743 mmHg 93%
07:00 +3°C° 0 mm 6 m/s 744 mmHg 89%
08:00 +3°C° 0 mm 7 m/s 745 mmHg 85%
09:00 +3°C° 0 mm 7 m/s 746 mmHg 81%
10:00 +4°C° 0 mm 7 m/s 747 mmHg 77%
11:00 +5°C° 0 mm 7 m/s 747 mmHg 73%
12:00 +5°C° 0 mm 7 m/s 748 mmHg 69%
13:00 +5°C° 0.1 mm 7 m/s 748 mmHg 70%
14:00 +5°C° 0.1 mm 7 m/s 748 mmHg 71%
15:00 +5°C° 0.1 mm 7 m/s 748 mmHg 72%
16:00 +4°C° 0.1 mm 6 m/s 748 mmHg 77%
17:00 +3°C° 0.1 mm 6 m/s 748 mmHg 81%
18:00 +3°C° 0.1 mm 6 m/s 748 mmHg 85%
19:00 +2°C° 0 mm 6 m/s 749 mmHg 88%
20:00 +2°C° 0 mm 5 m/s 749 mmHg 91%
21:00 +1°C° 0 mm 5 m/s 750 mmHg 93%
22:00 +1°C° 0 mm 5 m/s 750 mmHg 93%
23:00 +1°C° 0 mm 4 m/s 750 mmHg 94%

4 Noiembrie, Miercuri

Timp Temperatura Precipitaţii Vânt Presiune Umiditate
00:00 0°C° 0 mm 4 m/s 751 mmHg 94%
01:00 0°C° 0 mm 4 m/s 751 mmHg 94%
02:00 0°C° 0 mm 4 m/s 752 mmHg 94%
03:00 0°C° 0 mm 4 m/s 752 mmHg 94%
04:00 -1°C° 0 mm 4 m/s 753 mmHg 94%
05:00 -1°C° 0 mm 4 m/s 753 mmHg 94%
06:00 -1°C° 0 mm 4 m/s 754 mmHg 94%
07:00 0°C° 0 mm 4 m/s 754 mmHg 93%
08:00 0°C° 0 mm 4 m/s 754 mmHg 91%
09:00 +2°C° 0 mm 3 m/s 755 mmHg 90%
10:00 +4°C° 0 mm 4 m/s 755 mmHg 86%
11:00 +5°C° 0 mm 4 m/s 756 mmHg 82%
12:00 +7°C° 0 mm 4 m/s 756 mmHg 78%
13:00 +7°C° 0 mm 4 m/s 756 mmHg 79%
14:00 +7°C° 0 mm 4 m/s 757 mmHg 79%
15:00 +7°C° 0 mm 4 m/s 757 mmHg 80%
16:00 +7°C° 0 mm 3 m/s 757 mmHg 84%
17:00 +5°C° 0 mm 3 m/s 758 mmHg 88%
18:00 +4°C° 0 mm 3 m/s 758 mmHg 92%
19:00 +3°C° 0 mm 3 m/s 758 mmHg 92%
20:00 +3°C° 0 mm 3 m/s 759 mmHg 93%
21:00 +3°C° 0 mm 3 m/s 759 mmHg 93%
22:00 +3°C° 0 mm 2 m/s 759 mmHg 93%
23:00 +3°C° 0 mm 2 m/s 760 mmHg 93%

5 Noiembrie, Joi

Timp Temperatura Precipitaţii Vânt Presiune Umiditate
00:00 +3°C° 0 mm 2 m/s 760 mmHg 93%
01:00 +3°C° 0 mm 2 m/s 760 mmHg 93%
02:00 +3°C° 0 mm 2 m/s 760 mmHg 93%
03:00 +3°C° 0 mm 2 m/s 760 mmHg 93%
04:00 +2°C° 0 mm 2 m/s 760 mmHg 92%
05:00 +2°C° 0 mm 2 m/s 760 mmHg 92%
06:00 +2°C° 0 mm 2 m/s 761 mmHg 92%
07:00 +4°C° 0 mm 1 m/s 761 mmHg 90%
08:00 +4°C° 0 mm 1 m/s 761 mmHg 89%
09:00 +5°C° 0 mm 1 m/s 761 mmHg 88%
10:00 +6°C° 0 mm 1 m/s 761 mmHg 83%
11:00 +8°C° 0 mm 1 m/s 761 mmHg 78%
12:00 +9°C° 0 mm 1 m/s 761 mmHg 74%
13:00 +9°C° 0 mm 1 m/s 761 mmHg 75%
14:00 +8°C° 0 mm 0 m/s 760 mmHg 76%
15:00 +8°C° 0 mm 0 m/s 760 mmHg 76%
16:00 +7°C° 0 mm 0 m/s 760 mmHg 81%
17:00 +7°C° 0 mm 1 m/s 760 mmHg 85%
18:00 +5°C° 0 mm 1 m/s 760 mmHg 90%
19:00 +5°C° 0 mm 1 m/s 760 mmHg 90%
20:00 +5°C° 0 mm 1 m/s 759 mmHg 90%
21:00 +5°C° 0 mm 1 m/s 759 mmHg 90%
22:00 +5°C° 0 mm 1 m/s 759 mmHg 90%
23:00 +5°C° 0 mm 1 m/s 759 mmHg 91%
Arată mai mult

Formular de consimțământ

Meteoprog și furnizorii noștri de servicii pot stoca și accesa date personale, precum cookies, identificatori de dispozitiv sau alte tehnologii similare pe dispozitivul dumneavoastră și procesa astfel de date pentru a personaliza conținutul și reclamele, dar și pentru a oferi caracteristici de social media și pentru a analiza traficul.

  • Stocarea și/sau accesarea informațiilor pe dispozitivul dumneavoastră

    Cookies, identificatori de dispozitiv sau alte informații pot fi stocate sau accesate pe dispozitiv în scopurile indicate mai sus.

  • Reclame și conținut personalizat, evaluarea reclamelor și a conținutului, informații despre audiențe și dezvoltarea produselor

    Reclamele și conținutul pot fi personalizate pe baza unui profil. Pot fi adăugate date suplimentare pentru a personaliza mai bine reclamele și conținutul. Performanța reclamelor și conținutului poate fi măsurată. Pot fi obținute informații despre utilizatorii care au văzut reclamele și conținutul. Aceste date pot fi utilizate pentru a dezvolta sau îmbunătăți experiența utilizatorilor, sistemele și software-ul.

Dând clic pe ‘Sunt de acord’, permiteți utilizarea cookie-urilor menționate, a identificatorilor de dispozitiv, balizelor web sau altor tehnologii similare. Setările pot fi modificate din browser-ul dispozitivului dumneavoastră.

În anumite scopuri, interesele legitime pot prima asupra consimțământului. Puteți citi mai multe informații în acest sens în Politica privind Confidențialitatea Datelor și Cookie.